This demonstration page uses our WeatherBlox Daily Observations layout. Learn more.

Left ArrowRight Arrow

Hourly Observations for March 3, 2018

Temp ( °F °C ) Dew Point ( °F °C ) Humidity (%) Winds ( mph kmh ) Pressure ( in mb ) Visibility ( mi km ) Precip ( " mm )
12:54 am 00:54 Clear 45 7.2 30 -1.1 56 56 SSE 10 17 30.12 1020 10 16 0.00 0.00
1:54 am 01:54 Clear 44 6.7 31 -0.6 60 60 S 12 19 30.11 1020 10 16 0.00 0.00
2:54 am 02:54 Clear 45 7.2 32 0 61 61 SSE 16 26 30.09 1019 10 16 0.00 0.00
3:54 am 03:54 Clear 45 7.2 32 0 61 61 SSE 15 24 30.07 1018 10 16 0.00 0.00
4:54 am 04:54 Clear 44 6.7 32 0 63 63 SSE 13 20 30.06 1018 10 16 0.00 0.00
5:54 am 05:54 Clear 42 5.6 33 0.6 71 71 SSE 10 17 30.06 1018 10 16 0.00 0.00
6:54 am 06:54 Clear 42 5.6 33 0.6 71 71 SSE 10 17 30.07 1018 10 16 0.00 0.00
7:54 am 07:54 Sunny 44 6.7 35 1.7 71 71 SSE 15 24 30.08 1019 10 16 0.00 0.00
8:54 am 08:54 Sunny 50 10 38 3.3 63 63 SSE 17 28 30.06 1018 10 16 0.00 0.00
9:54 am 09:54 Sunny 56 13.3 40 4.4 55 55 SSE 26 43 30.05 1018 10 16 0.00 0.00
10:54 am 10:54 Sunny 59 15 41 5 51 51 S 25 41 30.04 1017 10 16 0.00 0.00
11:54 am 11:54 Sunny 63 17.2 42 5.6 47 47 S 26 43 30.01 1016 10 16 0.00 0.00
12:54 pm 12:54 Sunny 67 19.4 42 5.6 41 41 S 26 43 29.99 1016 10 16 0.00 0.00
1:54 pm 13:54 Sunny 70 21.1 43 6.1 38 38 SSE 22 35 29.96 1014 10 16 0.00 0.00
2:54 pm 14:54 Sunny 71 21.7 43 6.1 36 36 SSE 25 41 29.93 1014 10 16 0.00 0.00
3:54 pm 15:54 Sunny 72 22.2 43 6.1 35 35 SSE 20 31 29.92 1013 10 16 0.00 0.00
4:54 pm 16:54 Sunny 71 21.7 44 6.7 38 38 SSE 22 35 29.92 1013 10 16 0.00 0.00
5:54 pm 17:54 Sunny 67 19.4 44 6.7 44 44 SSE 18 30 29.94 1014 10 16 0.00 0.00
6:54 pm 18:54 Mostly Clear 64 17.8 44 6.7 48 48 SSE 20 31 29.96 1015 10 16 0.00 0.00
7:54 pm 19:54 Clear 61 16.1 44 6.7 54 54 SSE 22 35 29.97 1015 10 16 0.00 0.00
8:54 pm 20:54 Clear 60 15.6 44 6.7 56 56 SSE 22 35 29.98 1015 10 16 0.00 0.00
9:54 pm 21:54 Mostly Cloudy 59 15 44 6.7 58 58 SSE 22 35 29.98 1015 10 16 0.00 0.00
10:54 pm 22:54 Clear 58 14.4 44 6.7 60 60 S 21 33 29.99 1016 10 16 0.00 0.00
11:54 pm 23:54 Partly Cloudy 57 13.9 43 6.1 60 60 S 20 31 29.98 1015 10 16 0.00 0.00

Powered by AerisWeather